LANDSAT 9

导读 | 豆包AI

LANDSAT 9是美国陆地卫星计划的第九颗卫星,于2021年9月27日发射升空。它搭载了二代陆地成像仪OLI-2和二代热红外传感器TIRS-2,可在多光谱波段捕获陆地表面观测数据,测量地表热辐射,辐射测量精度相比前代显著提升,能获取更高质量的遥感影像。 该卫星持续为全球陆地变化监测、资源管理、环境研究提供关键数据,是国际对地观测战略的重要组成部分,中国也已共享其中国区域的大规模原始遥感数据集,助力全球生态研究与土地资源管理。

Basic Information
目录编号:
49260
目录名称:
LANDSAT 9
国际标识:
2021-088A
轨道中心:
EARTH
卫星名称:
LANDSAT 9
卫星全名:
--
卫星状态:
在轨 (已飞行1675 天)
发射日期:
2021-09-27 UTC
国别 :
美国 (US)
星等 :
--
Orbit Information
数据来源 国际轨道数据 AOE轨道数据
星历时间 2026-04-29T02:06:47+0800
8小时前
查看轨道信息
2026-04-22T22:00:00+0800
6天前
查看轨道信息
半长轴 7080.618km 7080.634km
偏心率 0.000129 0.0001241
轨道倾角 98.187° 98.187°
近地点辐角 105.374° 108.240°
升交点赤经 189.711° 183.645°
平近点角 254.760° 298.306°
近地点 701.567km 701.618km
远地点 703.395km 703.376km
周期 98.825分钟 98.825分钟
每日圈数 14.571224 14.571177
Detailed Information
使用方式:
暂无
2D Orbit Map
3D Orbit Map
Orbit Altitude Analysis Chart
Orbit Inclination Analysis Chart
Orbit Comprehensive Analysis Chart
View Comprehensive Chart